Aurora, OR

10:23 PM PDT on June 22, 2018 (GMT -0700)
Aurora State

Weather History for KUAO - August, 2016

Change the Weather History Date:

Friday, August 19, 2016

  Actual Average Record
Temperature  
Mean Temperature 83 °F -  
Max Temperature 101 °F - 101 °F (2016)
Min Temperature 67 °F - 50 °F (1998)
Degree Days  
Heating Degree Days 0    
Month to date heating degree days 10  
Since 1 June heating degree days 128  
Since 1 July heating degree days 24  
Cooling Degree Days 19    
Month to date cooling degree days 122  
Year to date cooling degree days 308  
Since 1 June cooling degree days 289  
Growing Degree Days 33 (Base 50)    
Moisture  
Dew Point 47 °F    
Average Humidity 36    
Maximum Humidity 56    
Minimum Humidity 16    
Precipitation  
Precipitation 0.00 in - 0.26 in (2007)
Month to date precipitation 0.01  
Year to date precipitation 21.32  
Sea Level Pressure  
Sea Level Pressure 29.87 in    
Wind  
Wind Speed 11 mph (NNE)    
Max Wind Speed 21 mph    
Max Gust Speed 26 mph    
Visibility 10 miles    
Events      
T = Trace of Precipitation, MM = Missing Value Source: NWS Daily Summary

Daily Weather History Graph

Daily Weather History Graph

Search for Another Location

Airport or City:

Astronomy

Aug. 19, 2016 Rise Set
Actual Time 6:17 AM PDT 8:10 PM PDT
Civil Twilight 5:46 AM PDT 8:41 PM PDT
Nautical Twilight 5:07 AM PDT 9:20 PM PDT
Astronomical Twilight 4:25 AM PDT 10:02 PM PDT
Moon 9:01 PM PDT (8/19) 7:46 AM PDT (8/19)
Length of Visible Light 14h 55m
Length of Day
13h 52m
Full, 97% of the Moon is Illuminated
Aug 19
Full
Aug 24
Last Quarter
Sep 1
New
Sep 9
First Quarter
Sep 16
Full

Hourly Weather History & Observations

Time (PDT) Temp. Dew Point Humidity Pressure Visibility Wind Dir Wind Speed Gust Speed Precip Events Conditions
12:53 AM 75.9 °F 48.0 °F 37% 29.88 in 10.0 mi NE 5.8 mph - N/A   Clear
1:53 AM 69.1 °F 48.0 °F 47% 29.87 in 10.0 mi NE 4.6 mph - N/A   Clear
2:53 AM 69.1 °F 46.9 °F 45% 29.88 in 10.0 mi NNE 5.8 mph - N/A   Clear
3:53 AM 70.0 °F 46.9 °F 44% 29.88 in 10.0 mi North 9.2 mph - N/A   Clear
4:53 AM 69.1 °F 48.9 °F 49% 29.88 in 10.0 mi North 8.1 mph - N/A   Clear
5:53 AM 66.9 °F 50.0 °F 54% 29.88 in 10.0 mi North 5.8 mph - N/A   Clear
6:53 AM 70.0 °F 50.0 °F 49% 29.89 in 10.0 mi NNW 4.6 mph - N/A   Clear
7:53 AM 77.0 °F 48.9 °F 37% 29.91 in 10.0 mi North 8.1 mph - N/A   Clear
8:53 AM 82.9 °F 48.0 °F 29% 29.91 in 10.0 mi North 9.2 mph - N/A   Clear
9:53 AM 88.0 °F 46.9 °F 24% 29.91 in 10.0 mi North 13.8 mph - N/A   Clear
10:53 AM 93.0 °F 46.9 °F 20% 29.91 in 10.0 mi NE 12.7 mph 19.6 mph N/A   Partly Cloudy
11:53 AM 95.0 °F 48.9 °F 21% 29.90 in 10.0 mi North 10.4 mph 23.0 mph N/A   Clear
12:53 PM 98.1 °F 46.0 °F 17% 29.89 in 10.0 mi NE 15.0 mph - N/A   Clear
1:53 PM 98.1 °F 48.9 °F 19% 29.88 in 10.0 mi North 16.1 mph 24.2 mph N/A   Clear
2:53 PM 99.0 °F 48.0 °F 18% 29.87 in 10.0 mi North 17.3 mph 26.5 mph N/A   Clear
3:53 PM 100.0 °F 46.9 °F 16% 29.85 in 10.0 mi NNE 18.4 mph - N/A   Clear
4:53 PM 99.0 °F 46.9 °F 17% 29.84 in 10.0 mi North 20.7 mph - N/A   Clear
5:53 PM 98.1 °F 46.9 °F 18% 29.83 in 10.0 mi NNE 17.3 mph - N/A   Clear
6:53 PM 96.1 °F 46.0 °F 18% 29.83 in 10.0 mi NNE 12.7 mph - N/A   Clear
7:53 PM 91.0 °F 46.0 °F 21% 29.83 in 10.0 mi NNE 9.2 mph - N/A   Clear
8:53 PM 82.9 °F 45.0 °F 26% 29.84 in 10.0 mi North 10.4 mph - N/A   Clear
9:53 PM 79.0 °F 45.0 °F 30% 29.86 in 10.0 mi North 9.2 mph - N/A   Clear
10:53 PM 79.0 °F 45.0 °F 30% 29.86 in 10.0 mi North 8.1 mph - N/A   Clear
11:53 PM 77.0 °F 45.0 °F 32% 29.87 in 10.0 mi North 10.4 mph - N/A   Clear